GFSNGP_500_spd_072.txt.gz
Wind_Speed
25 22 26 18 16 22 33 33 40 40 46 35 23 40 51 49 38 38 33 34 27 23 25 23 22 25 31 34 34 32 27 27 29 28 28 27 26 25 25 24 24 24 25 27
26 23 24 28 22 17 21 29 36 39 45 42 33 25 32 47 48 41 36 35 37 30 30 30 27 27 28 25 25 26 27 28 27 28 30 31 31 31 29 28 28 28 28 29
26 25 24 24 19 16 13 24 29 43 33 28 47 37 31 28 34 37 47 39 31 30 33 35 34 32 32 37 39 37 33 31 31 30 32 34 34 34 33 34 34 34 33 34
27 27 24 21 19 22 18 18 22 34 28 34 35 35 28 41 40 41 42 45 45 39 36 36 40 41 43 43 42 42 41 39 38 38 37 38 39 40 40 40 40 41 41 41
29 27 25 25 23 21 19 20 24 24 27 28 29 27 28 26 31 33 36 32 33 34 34 37 41 44 44 44 49 47 45 44 44 46 44 42 44 46 46 47 46 46 49 49
31 31 30 27 26 23 26 25 17 19 26 20 20 24 30 31 37 32 32 34 31 30 32 35 37 40 38 45 51 51 52 51 52 54 54 51 48 46 46 46 48 49 52 53
32 34 32 29 32 23 26 25 23 19 25 29 22 21 25 26 29 28 26 29 31 36 38 37 38 39 39 39 40 39 39 42 45 48 50 51 51 50 50 51 52 53 54 55
29 35 36 35 30 29 29 29 26 28 23 21 31 32 25 18 20 30 29 27 32 31 33 35 37 39 40 43 45 46 47 47 50 52 54 55 56 57 57 57 58 58 60 60
12 15 24 34 35 29 32 28 26 22 28 38 28 20 27 25 25 27 30 31 35 37 38 40 42 42 43 44 45 45 45 46 47 50 53 55 58 59 62 63 63 65 65 65
15 13 28 40 40 38 29 30 25 24 27 25 27 28 30 30 31 33 35 38 40 42 45 45 43 42 40 38 39 40 42 44 46 48 50 51 54 56 58 60 63 66 67 68
17 16 13 28 44 30 31 31 33 31 27 26 29 31 35 36 37 39 45 47 45 43 39 37 37 37 37 38 39 40 41 43 45 46 48 50 52 54 55 57 58 60 63 66
20 20 13 12 29 35 35 32 37 38 36 35 37 39 42 44 47 47 45 39 35 34 35 36 37 39 39 39 41 43 46 48 50 52 53 55 57 58 59 60 60 58 57 59
20 21 21 20 18 21 24 24 30 31 35 33 31 32 35 37 36 33 32 31 33 35 37 39 41 42 43 44 47 49 51 53 55 58 59 61 63 65 65 64 63 60 59 58
14 19 12 23 20 29 32 23 25 32 32 28 24 24 26 26 27 30 33 35 37 39 41 43 45 47 49 51 53 55 57 59 61 62 60 56 53 53 54 53 55 56 58 59
11 13 13 14 20 12 16 15 16 21 23 23 25 28 30 31 33 35 37 39 41 43 45 47 49 51 54 56 58 60 60 58 56 52 49 50 51 52 51 48 50 53 54 54
11 14 14 15 16 12 13 14 17 22 24 27 29 30 32 34 35 37 40 42 45 48 50 52 54 56 58 59 58 56 53 51 48 47 46 46 47 47 48 48 48 50 50 51
16 16 19 19 17 17 18 21 24 28 29 30 32 33 35 37 40 42 44 46 49 51 53 55 55 54 49 46 43 43 42 43 45 45 47 48 47 46 48 49 49 50 51 52
19 21 22 23 23 24 25 27 29 30 32 34 35 37 38 39 41 44 46 48 50 50 48 47 44 42 43 44 44 44 43 45 45 45 46 48 48 50 51 52 53 53 54 53
24 25 24 24 26 28 30 31 32 33 35 36 37 39 41 41 40 41 41 42 44 45 45 45 44 44 44 45 45 44 44 46 48 50 51 51 52 53 53 54 55 56 57 58
19 18 19 22 24 27 29 31 32 34 35 37 37 38 38 39 40 41 42 43 45 46 46 47 46 46 46 47 47 48 49 50 51 52 53 54 55 56 58 60 61 63 65 67
19 19 19 20 22 24 26 30 32 34 35 35 35 37 38 38 38 39 41 42 44 45 45 46 46 46 47 47 48 50 51 52 54 56 59 60 62 63 65 66 67 68 70 71
19 19 21 23 26 30 30 29 30 32 33 35 37 38 39 40 42 43 43 43 43 43 43 45 47 49 51 54 56 58 60 61 62 64 66 67 67 67 67 66 66 66 65 64
21 23 25 26 28 29 28 29 33 35 36 38 39 40 40 41 40 39 40 43 46 48 50 53 55 57 59 61 63 65 67 67 67 65 64 62 62 61 60 58 56 54 52 51
26 28 30 31 33 32 34 38 36 35 35 36 36 37 39 42 44 46 49 51 53 55 57 59 62 64 66 66 66 66 65 63 61 59 58 56 53 51 48 46 44 43 43 44
30 32 33 34 35 35 32 31 33 35 37 39 42 44 45 48 50 53 55 57 60 63 65 66 67 67 65 65 63 61 59 57 54 50 46 42 39 37 37 37 38 40 41 43
32 32 34 33 32 33 35 36 38 41 44 46 48 51 53 55 57 60 63 66 68 69 68 67 65 64 62 59 55 51 47 43 39 36 33 32 33 34 35 36 38 40 42 44
30 32 34 34 36 38 40 42 44 46 48 51 54 57 60 64 67 69 69 68 66 65 63 61 57 54 49 45 41 37 33 30 29 30 31 31 31 32 35 37 40 42 44 44

GFSNGP_500_spd_075.txt.gz
Wind_Speed
23 23 24 24 21 20 20 22 34 25 32 34 27 27 36 44 41 40 37 36 35 31 30 30 30 30 30 31 33 35 35 34 32 26 27 25 26 26 27 26 24 24 23 23
27 27 28 27 25 25 29 26 30 32 40 42 37 19 19 33 46 46 46 40 37 33 32 32 32 30 24 22 23 24 28 32 31 34 33 31 30 29 29 28 27 28 28 28
26 28 28 23 22 31 27 24 25 37 34 41 41 24 27 25 33 47 47 43 41 38 36 34 34 31 30 27 26 26 25 23 25 27 34 35 35 34 34 34 34 34 33 33
29 28 28 21 24 29 26 25 16 25 30 30 39 29 28 33 28 33 44 45 44 41 38 43 43 41 32 32 32 32 33 34 36 38 37 35 35 36 37 38 38 39 41 44
29 28 26 22 25 24 23 23 17 18 24 23 24 37 29 26 29 32 36 37 35 44 42 45 42 40 39 36 37 39 40 39 38 39 41 44 46 44 43 44 47 50 49 49
29 28 26 24 24 25 24 20 17 17 17 17 25 22 17 30 34 33 33 32 34 45 40 51 45 44 40 39 37 37 39 42 44 45 48 50 51 49 50 52 52 55 57 57
28 30 27 22 27 26 24 20 19 16 14 21 19 21 25 22 30 33 34 32 32 34 34 36 36 36 35 35 37 39 42 43 42 41 43 50 56 58 60 60 58 55 57 59
27 31 30 25 28 28 25 20 19 19 11 15 19 19 25 26 26 24 27 30 30 32 31 30 30 32 34 36 37 39 40 42 44 44 45 47 48 50 50 53 55 56 58 59
27 29 34 29 31 29 27 26 18 19 17 20 22 25 19 21 24 28 25 20 23 23 24 27 32 35 36 37 39 42 44 46 48 48 48 48 47 47 47 49 51 54 56 59
22 27 29 27 29 35 31 31 28 24 37 20 22 28 30 26 28 24 25 26 25 25 28 33 36 39 43 45 44 45 46 45 45 46 47 47 47 47 48 49 50 51 53 54
24 17 13 16 27 30 33 32 37 38 31 28 28 27 27 26 30 28 27 30 31 33 34 37 39 43 47 45 42 41 41 42 43 44 46 46 48 50 52 54 56 58 60 61
21 16 12 12 19 29 28 33 30 33 41 36 27 28 30 31 32 34 35 37 39 40 43 46 48 49 45 41 39 40 42 43 43 44 47 48 51 53 55 57 60 63 65 67
21 15 15 14 12 24 32 31 24 21 22 32 36 31 32 32 34 33 33 35 38 40 40 38 36 35 37 39 41 43 45 47 49 50 51 54 56 58 61 64 65 66 68 67
18 9 7 11 19 14 32 36 24 24 26 25 28 29 28 28 30 30 30 29 30 31 33 35 36 38 41 43 45 47 49 51 53 56 59 61 62 64 66 64 61 58 54 54
6 17 17 9 11 15 24 28 26 26 26 22 25 29 30 30 30 31 32 33 35 37 38 40 42 45 46 48 49 51 54 57 59 62 63 65 67 66 62 57 54 51 51 53
2 3 6 8 7 10 14 20 32 33 26 22 24 26 27 28 29 32 34 37 39 42 44 46 47 49 51 53 55 57 59 61 62 62 60 57 55 53 53 53 52 52 54 54
12 11 13 11 10 10 13 14 17 20 23 25 27 29 31 33 35 37 39 41 44 46 48 49 50 52 53 54 54 55 55 54 52 51 51 51 51 51 52 53 54 53 55 56
15 18 19 17 15 15 17 19 21 23 25 27 30 32 34 37 40 42 43 44 45 46 47 47 48 48 49 50 50 51 50 50 51 51 52 52 53 53 54 55 57 58 59 60
22 19 19 18 18 19 22 23 24 25 26 29 30 32 35 37 38 40 41 42 43 43 44 45 47 49 50 52 52 53 53 53 53 54 55 56 57 58 58 58 59 60 60 61
16 16 17 16 18 21 23 24 25 26 28 30 32 34 36 38 39 40 40 41 42 43 44 45 46 47 48 51 52 53 54 55 56 56 57 57 57 58 59 61 63 65 66 67
18 20 21 23 23 22 24 26 27 28 33 35 37 39 41 41 41 41 42 44 45 46 48 50 51 52 52 51 51 51 52 54 56 59 61 62 63 64 66 68 69 69 69 69
21 21 22 21 23 26 27 27 29 32 35 35 34 35 37 39 40 43 44 46 47 48 49 50 50 51 52 54 56 58 60 61 63 65 67 68 69 69 69 69 68 67 65 64
22 24 24 26 27 29 31 33 34 35 36 38 41 43 43 43 43 44 45 46 47 49 51 53 54 56 58 60 62 64 65 67 68 68 68 67 67 66 65 64 62 59 55 51
24 25 28 30 33 35 36 36 37 39 41 41 39 40 41 43 45 47 49 51 53 55 57 59 61 62 64 66 67 68 68 67 67 66 65 65 63 60 57 52 47 43 39 38
28 30 34 36 38 36 37 38 38 38 40 41 43 45 47 49 51 54 55 57 58 60 61 63 65 66 67 67 66 66 65 64 63 61 58 54 50 46 41 37 34 34 34 35
32 34 35 36 37 37 38 39 41 43 45 47 49 50 52 53 55 57 59 62 64 65 65 66 65 65 65 64 63 61 58 56 53 49 45 41 37 34 32 32 32 32 33 35
32 33 34 36 38 40 41 43 45 47 48 50 52 55 58 60 62 63 63 63 63 64 64 64 62 59 55 52 50 47 45 42 39 36 34 33 32 33 32 32 32 33 35 38

GFSNGP_500_spd_078.txt.gz
Wind_Speed
25 21 23 26 24 24 21 20 25 19 23 29 28 20 17 20 22 32 40 41 39 34 34 28 28 27 26 25 26 29 30 29 29 27 27 27 25 24 23 23 24 23 23 22
26 25 24 23 22 24 26 27 25 24 26 31 35 27 16 28 27 26 36 39 41 36 33 30 33 33 31 30 32 30 32 34 29 30 24 28 31 29 29 29 29 29 28 28
29 26 24 23 24 25 25 27 26 28 27 35 34 33 23 19 16 34 35 41 39 39 38 36 38 35 32 34 34 29 20 22 16 16 27 25 29 33 33 34 33 34 34 34
31 27 26 23 24 23 23 26 29 24 23 35 31 34 29 19 21 24 29 48 46 42 43 39 36 37 35 33 33 29 27 27 28 26 26 28 30 30 32 37 38 35 36 37
31 30 29 21 24 21 20 21 21 20 16 22 28 29 25 29 29 27 23 29 46 44 45 47 44 42 40 40 40 38 37 33 32 31 33 33 34 34 35 37 41 44 45 46
34 34 27 21 23 22 18 16 17 19 16 16 19 16 18 24 27 24 23 33 30 34 58 52 51 48 43 46 46 47 46 42 35 35 35 34 35 35 40 43 46 49 49 53
34 31 23 20 23 23 20 18 18 18 17 18 21 18 17 20 27 29 29 32 32 39 39 32 39 55 50 55 52 45 46 42 32 32 34 35 35 36 37 38 42 46 48 52
27 26 22 20 22 23 21 21 19 19 17 11 10 13 17 27 29 29 31 37 38 37 36 35 40 46 41 36 36 34 33 33 33 35 35 37 40 42 43 41 44 45 46 48
22 22 20 20 20 22 22 21 21 18 20 10 9 11 23 23 23 24 22 22 24 28 31 31 29 28 27 26 27 29 31 33 36 39 42 43 45 44 43 41 41 42 44 46
21 19 18 20 22 24 23 23 24 21 16 26 28 28 28 26 26 19 19 23 21 23 27 25 22 22 23 26 28 30 32 34 38 42 42 41 41 41 41 42 42 44 46 48
19 22 20 13 18 26 27 25 25 28 27 22 21 24 29 29 27 25 25 25 21 23 23 24 25 27 29 31 34 37 40 45 45 40 39 41 42 42 42 43 44 47 49 51
21 17 16 14 17 21 23 24 21 28 33 30 26 22 22 23 23 21 20 21 23 27 29 30 31 33 35 38 38 38 39 40 41 42 43 44 45 47 48 49 50 52 55 57
19 17 17 14 10 10 14 25 24 22 24 33 27 26 34 29 26 22 26 29 29 30 31 32 33 34 33 34 33 35 36 38 40 43 45 48 50 53 54 55 56 58 60 62
13 20 14 14 17 14 11 21 29 22 21 19 22 25 22 20 22 24 27 29 30 28 27 28 30 31 32 34 36 38 40 42 45 48 49 51 53 55 57 59 61 63 66 68
8 14 14 9 9 10 11 14 27 30 25 24 22 24 27 27 28 27 27 28 30 31 31 32 33 35 37 40 42 44 46 48 51 53 54 56 58 60 62 64 65 64 62 59
4 5 14 10 9 11 15 11 13 21 24 27 31 28 28 23 23 25 27 29 31 32 34 36 38 40 43 45 47 49 51 54 56 58 59 61 62 62 63 60 57 56 56 56
3 5 6 7 8 8 7 11 14 16 18 21 26 28 29 28 30 33 34 37 39 41 43 44 46 48 49 50 52 53 54 56 57 57 57 56 56 56 56 55 56 58 59 59
12 13 13 13 14 15 15 15 16 18 21 24 28 30 32 34 37 39 41 43 45 46 47 48 48 50 51 52 52 53 53 54 54 55 56 57 57 58 59 59 60 61 62 64
17 18 19 20 18 17 17 17 18 20 23 26 29 31 33 36 38 40 41 43 44 46 48 49 49 50 50 50 51 52 53 53 53 53 55 57 58 59 59 60 61 62 63 64
16 15 17 16 17 17 18 20 22 24 25 27 29 31 31 34 38 42 44 45 46 47 47 47 48 48 49 51 53 54 55 56 58 59 59 58 58 58 60 63 65 66 67 68
14 17 18 19 21 22 23 25 26 27 30 31 31 32 35 36 38 40 40 41 43 44 45 47 49 51 53 54 54 55 55 56 57 58 60 62 63 64 65 66 68 70 71 72
17 19 22 24 25 26 26 28 30 32 33 34 36 39 40 42 44 45 47 49 51 50 50 51 51 52 53 54 55 57 60 61 63 64 65 66 67 69 70 71 71 71 71 70
19 21 23 26 29 31 32 34 36 37 39 42 44 46 47 47 47 47 47 47 47 48 50 52 55 57 59 61 62 63 65 66 67 69 70 71 71 71 70 69 68 68 67 65
24 27 30 30 30 33 36 40 42 44 46 47 46 45 44 44 45 47 49 51 53 55 57 59 61 63 65 66 67 69 70 71 71 71 71 70 69 69 68 66 64 61 57 52
25 28 31 34 37 39 41 42 42 41 42 42 43 45 46 48 50 52 54 56 58 60 61 63 65 67 68 69 69 69 69 69 70 69 67 65 63 60 57 54 50 46 42 39
30 32 35 36 37 38 39 41 43 45 46 48 50 51 52 53 54 56 58 60 62 63 63 63 64 65 66 66 67 66 65 63 60 56 54 51 49 46 44 41 38 35 35 35
32 35 37 39 39 40 42 43 44 45 46 48 51 54 56 57 58 58 58 59 60 60 60 59 58 56 55 53 52 51 49 47 46 44 42 40 38 36 35 35 35 35 35 35

GFSNGP_500_spd_084.txt.gz
Wind_Speed
25 23 24 23 22 22 23 25 24 23 17 21 22 26 29 23 19 33 39 43 42 41 39 41 35 43 42 42 38 23 22 24 26 26 27 27 25 24 22 21 22 22 22 20
25 29 28 25 24 24 23 24 24 24 24 22 24 25 25 24 14 27 35 39 42 42 40 38 39 41 46 42 36 32 34 31 28 27 25 25 26 27 26 26 25 25 24 23
29 39 30 26 21 17 18 23 22 23 23 24 26 25 21 19 16 21 28 34 39 38 39 40 36 43 44 41 42 40 39 32 31 28 26 21 28 31 29 28 24 21 22 23
31 22 27 21 20 16 16 20 18 18 22 24 23 21 18 14 17 10 23 31 33 35 35 31 36 44 44 43 43 44 41 36 34 30 28 24 19 26 26 29 30 27 28 27
17 24 19 15 12 12 15 17 14 14 16 21 25 23 15 16 13 14 15 24 36 42 42 39 37 36 40 44 46 43 39 35 31 33 35 31 31 29 26 26 27 26 26 28
16 14 13 14 15 15 15 17 16 14 16 17 20 17 16 16 17 16 15 17 15 42 46 49 46 42 39 49 44 39 40 41 45 47 45 35 24 28 30 29 31 32 32 33
7 7 7 11 14 12 17 19 17 16 17 19 19 17 20 22 20 21 21 20 21 24 45 56 46 47 47 41 45 45 45 47 36 37 43 35 30 32 40 38 36 37 36 37
9 7 9 9 11 13 16 20 20 17 18 19 19 17 21 23 23 21 23 27 25 25 25 25 40 53 43 47 45 46 49 52 54 47 52 49 47 44 46 51 43 38 38 39
17 13 11 12 14 16 16 18 20 18 18 19 23 20 15 20 23 21 21 23 25 29 30 31 30 29 32 54 63 52 55 55 57 58 60 62 52 48 46 41 38 35 35 38
16 16 16 18 20 22 17 20 20 19 18 18 17 18 26 16 15 18 21 23 22 24 27 29 30 32 34 40 41 41 39 38 36 39 36 28 31 32 30 30 30 34 38 41
18 20 21 20 26 24 21 22 20 17 17 12 10 3 11 19 21 22 22 23 21 21 22 25 26 26 26 27 28 27 25 23 23 24 26 26 27 28 31 34 37 40 44 46
14 22 26 28 27 21 15 14 12 15 15 16 10 9 12 10 11 16 19 24 24 26 27 26 25 24 22 17 15 17 19 21 24 26 28 28 30 33 35 37 39 42 43 45
10 19 20 20 15 15 9 10 10 11 17 14 11 12 11 13 12 12 21 16 16 14 14 15 15 16 18 18 19 21 23 26 27 30 31 33 35 37 38 40 42 44 46 48
11 14 20 16 12 13 10 8 7 10 18 22 22 21 19 19 17 15 14 16 22 26 27 27 25 20 19 23 25 26 29 31 33 34 36 38 39 41 44 46 48 51 52 54
4 8 13 12 13 13 13 11 10 7 9 21 22 24 20 20 15 16 14 16 18 17 19 20 22 24 26 28 30 32 34 35 37 39 41 43 45 48 50 52 53 55 57 59
5 8 10 11 10 13 11 7 11 11 10 10 19 27 25 24 22 21 23 23 22 22 23 25 27 29 30 32 34 36 38 40 42 44 46 49 51 53 55 57 58 60 61 63
5 8 10 9 8 5 5 6 6 8 10 11 12 14 18 22 25 26 28 28 29 29 30 33 36 38 39 41 42 43 45 47 48 49 50 52 54 56 58 60 62 63 64 64
2 2 0 2 3 5 6 8 10 12 14 15 17 19 21 23 25 27 29 31 32 35 37 39 41 43 44 46 47 48 50 51 53 54 55 57 58 59 60 61 62 62 63 63
7 7 8 8 9 10 11 11 12 14 17 19 21 24 26 29 31 33 35 37 38 40 41 43 45 46 48 49 50 52 53 54 56 57 58 59 60 61 62 63 65 65 66 67
13 14 13 13 14 13 14 16 19 21 23 25 28 30 33 35 37 39 41 43 44 45 47 48 49 50 52 53 55 57 58 58 59 60 61 61 62 63 64 64 64 65 65 67
16 17 17 17 17 18 20 22 25 27 29 30 33 36 38 40 42 44 46 47 49 50 52 54 55 56 57 58 58 58 59 60 61 61 61 61 62 63 65 67 68 69 71 72
17 18 20 21 23 25 26 28 29 30 31 35 38 39 40 41 43 45 48 50 52 53 53 54 55 55 55 55 55 56 57 59 61 62 64 65 66 68 69 70 71 73 74 76
19 21 22 24 26 28 30 32 34 37 39 40 41 42 44 45 46 47 49 50 51 52 53 54 56 57 58 59 60 61 62 63 64 65 66 67 69 71 73 74 75 75 76 76
17 18 19 21 24 27 29 32 34 37 40 42 45 47 49 50 51 51 52 53 54 55 56 57 58 59 60 61 63 65 66 67 67 68 68 69 69 70 71 71 71 69 67 65
18 20 22 24 27 30 33 37 41 44 46 48 49 50 51 52 53 54 55 57 58 59 60 61 61 62 62 63 63 64 65 65 65 65 64 62 60 58 57 56 54 53 52 52
18 22 26 30 33 35 39 42 44 45 47 49 50 52 52 52 53 54 55 56 58 59 60 61 62 62 62 61 60 58 57 55 53 52 51 50 49 49 49 48 48 48 47 45
25 30 32 34 38 41 44 46 49 50 52 53 52 52 53 55 56 56 57 58 59 59 58 57 55 54 52 50 48 47 45 43 43 42 42 43 44 45 46 46 47 47 46 46

GFSNGP_500_spd_090.txt.gz
Wind_Speed
32 29 33 31 20 28 25 23 23 25 26 25 22 20 17 18 18 22 23 21 22 25 30 35 37 38 42 47 46 39 35 32 31 28 22 21 24 24 25 26 26 24 24 21
34 32 33 17 27 28 32 29 28 23 20 25 23 25 22 16 16 20 24 23 25 26 33 38 38 42 45 42 31 39 38 31 33 32 27 26 27 27 26 28 28 27 26 26
30 40 34 10 15 28 18 11 20 23 26 22 24 23 22 19 17 16 16 19 26 24 31 41 42 42 33 36 40 30 27 37 35 33 32 30 30 29 28 29 30 31 31 30
23 31 26 16 24 18 18 16 14 18 19 21 23 20 19 17 16 13 13 15 19 24 28 42 48 44 44 42 38 37 35 32 37 38 36 35 35 34 31 29 32 34 33 33
6 15 32 27 25 22 22 19 17 18 19 21 21 17 17 17 17 14 13 11 18 17 32 36 45 45 41 45 37 35 35 36 38 44 42 40 40 39 37 35 35 36 39 33
6 19 20 22 24 23 26 25 17 18 18 18 18 17 15 14 14 14 15 15 16 11 26 34 46 43 42 40 42 41 41 39 39 47 47 46 44 43 42 41 41 39 40 39
15 16 17 17 23 27 25 21 20 19 18 18 18 17 15 14 14 16 18 17 16 14 11 32 37 37 41 43 47 44 44 47 50 47 45 46 47 46 45 45 41 41 42 44
11 13 17 19 13 15 16 12 11 13 15 17 18 17 17 15 16 17 17 19 20 19 19 17 27 46 47 47 55 40 46 50 57 44 48 50 58 65 52 49 43 44 48 50
16 15 15 16 15 12 9 7 8 12 12 15 17 17 15 15 16 16 16 18 19 20 21 19 21 16 22 24 38 48 50 52 56 55 55 55 56 63 64 61 53 56 58 64
16 17 16 17 15 13 8 6 4 11 14 14 14 16 15 13 13 16 17 17 16 18 19 17 16 17 17 21 19 29 34 41 52 48 50 47 59 67 51 55 65 64 69 66
18 17 17 15 14 9 5 7 8 8 12 14 13 14 14 13 11 13 12 10 9 9 9 10 11 13 17 20 23 27 29 30 31 35 57 64 64 71 66 65 56 57 57 59
19 18 18 17 14 11 12 12 15 16 15 13 11 11 12 7 5 7 8 7 8 11 11 13 15 16 17 10 12 14 20 26 30 33 34 32 33 35 37 38 37 35 37 37
14 18 19 18 17 14 13 15 17 17 17 16 14 14 12 10 9 8 10 11 11 10 7 10 15 22 19 19 20 19 15 14 15 15 17 17 18 20 21 23 24 25 28 29
15 23 26 25 23 20 20 20 17 17 17 18 19 20 20 18 16 15 14 14 15 14 16 19 22 21 21 22 21 21 21 21 21 22 23 24 26 27 28 30 32 34 37 38
4 9 15 20 27 27 22 17 16 14 14 14 20 22 25 24 23 24 22 22 23 23 22 22 21 22 24 24 25 25 27 27 28 29 31 33 35 36 37 39 41 43 44 45
4 4 7 9 13 17 16 16 18 15 14 13 12 19 29 28 27 27 28 28 29 26 25 25 26 28 30 31 33 33 34 36 36 37 38 39 40 41 42 44 46 48 50 51
4 4 4 7 12 11 11 11 14 15 12 12 14 15 15 17 22 29 32 30 30 33 33 32 33 34 35 36 38 39 40 41 42 43 44 46 47 49 50 51 53 54 55 56
3 5 5 5 8 9 9 10 10 9 10 11 13 15 16 18 19 21 23 25 28 30 32 34 36 38 40 40 41 42 43 45 47 49 51 52 53 55 56 57 58 59 61 63
8 7 7 7 5 2 2 6 8 9 11 13 14 16 18 21 24 26 29 32 35 37 40 42 44 46 48 50 51 52 53 54 54 56 57 59 60 61 62 62 63 64 64 65
6 6 6 5 4 5 7 9 9 11 14 17 20 23 26 29 31 34 37 39 42 44 46 48 49 50 50 51 52 54 55 56 57 58 59 60 62 63 65 66 67 68 68 69
11 10 10 10 11 11 11 13 15 18 22 25 28 31 32 34 35 36 37 40 42 44 46 49 51 53 55 57 58 60 61 62 63 64 65 66 67 67 68 68 69 70 71 72
15 15 14 13 14 15 17 18 20 22 23 23 25 27 31 34 37 40 42 44 47 49 51 55 57 59 61 62 64 65 65 66 66 66 66 67 68 68 69 69 70 71 71 72
19 18 17 16 15 15 15 15 17 20 24 27 30 33 35 39 42 45 46 50 52 54 56 58 60 62 62 63 64 65 65 66 67 67 68 68 69 69 69 68 69 69 69 70
15 15 14 13 13 14 16 20 23 26 29 33 35 37 41 45 48 51 55 57 59 60 61 61 60 61 62 62 63 64 64 65 65 66 67 67 68 68 68 68 69 68 68 67
13 13 13 14 18 22 26 28 30 32 34 38 41 45 50 53 56 58 59 60 62 62 62 63 64 64 64 64 65 65 65 65 65 65 64 63 63 62 62 61 59 58 57 55
11 14 17 21 25 28 31 34 37 39 43 46 48 50 53 56 58 60 61 62 63 63 64 65 67 66 65 64 61 59 57 55 53 52 51 51 50 49 48 47 45 44 43 43
17 21 26 29 31 34 37 41 43 46 49 53 56 58 59 59 61 62 63 64 65 66 66 62 58 55 52 51 50 48 47 46 45 44 43 43 42 42 41 41 40 40 39 39

GFSNGP_500_spd_093.txt.gz
Wind_Speed
24 33 31 41 40 35 31 26 27 34 23 27 14 13 17 12 9 13 16 15 15 15 21 27 27 27 32 30 31 32 31 33 36 35 30 31 25 20 19 22 23 21 20 21
21 31 36 35 36 37 16 27 23 27 29 15 23 25 20 21 17 15 16 17 17 17 18 23 25 29 34 32 32 33 36 37 35 32 33 35 30 25 23 24 24 25 23 23
15 30 27 26 27 28 3 25 28 24 28 23 14 18 16 15 15 17 16 15 16 16 19 19 26 33 34 36 39 38 40 42 40 39 37 39 33 31 30 27 27 26 27 27
12 27 13 22 14 16 18 20 12 9 14 17 19 17 17 18 18 16 17 15 16 15 20 24 21 33 38 39 40 37 35 36 30 46 38 30 32 34 34 33 30 29 27 27
11 11 9 17 26 23 16 13 7 7 10 11 13 12 15 16 18 18 18 16 15 13 17 15 22 34 40 42 41 38 38 36 31 35 40 39 35 35 36 36 35 34 33 31
12 6 15 25 26 19 11 12 11 10 10 12 13 13 13 15 17 18 18 20 17 13 14 13 31 26 30 43 43 40 40 38 32 35 40 38 40 40 40 40 39 39 39 37
12 6 12 14 18 16 16 14 16 15 13 13 15 14 15 16 17 16 16 18 17 14 9 10 19 29 30 40 37 47 42 37 41 41 40 40 45 45 46 46 44 44 44 44
16 4 9 16 13 16 17 15 14 15 15 15 17 18 18 17 18 17 16 14 13 14 14 11 11 26 28 32 45 34 39 37 41 44 48 41 55 56 55 52 51 49 49 49
8 12 11 8 9 4 8 9 9 8 11 12 14 17 17 17 15 16 16 14 11 10 12 13 13 15 22 32 26 45 39 40 45 56 54 51 48 50 52 51 54 55 55 54
15 9 12 13 13 13 11 9 7 8 11 12 12 12 13 15 15 13 13 12 12 12 12 12 12 14 16 17 15 14 17 22 31 40 48 50 55 57 60 63 66 63 62 67
10 16 15 15 15 13 12 9 6 6 11 13 16 14 12 10 10 12 13 12 12 10 8 6 6 4 3 5 8 11 15 18 22 25 30 35 41 41 46 45 49 47 49 50
17 12 19 16 16 14 12 11 9 9 7 9 12 13 13 11 10 9 7 7 8 9 8 7 3 1 5 4 10 8 9 14 18 21 24 27 27 30 34 36 39 38 40 43
13 18 17 22 22 17 14 12 12 11 13 10 16 12 14 12 10 9 8 9 8 9 9 7 6 8 12 12 12 14 12 15 12 13 15 17 21 23 23 26 25 25 25 26
14 16 18 23 24 23 20 18 18 16 13 13 14 15 18 17 14 14 14 14 15 14 13 13 15 18 19 19 17 17 18 19 20 21 23 23 24 26 27 28 27 27 28 30
9 13 18 23 26 27 26 24 22 18 13 13 12 15 18 21 18 21 21 20 21 22 22 23 22 22 22 23 23 24 25 26 27 28 29 31 32 34 35 35 36 36 38 40
3 2 4 5 9 14 19 26 21 17 13 11 12 12 13 13 20 23 24 25 26 27 27 25 25 27 29 30 32 33 34 35 36 37 37 38 39 40 41 43 44 44 45 46
6 6 4 5 4 5 7 11 13 12 13 13 11 11 12 12 12 13 15 17 18 19 23 28 30 31 31 31 32 33 34 36 38 39 40 42 43 44 45 48 49 51 51 53
3 3 3 4 4 5 8 8 9 8 7 8 10 11 12 13 15 16 19 21 24 25 27 29 31 34 36 39 40 41 44 46 47 48 49 50 51 52 52 54 56 58 59 59
10 8 7 6 5 4 2 1 2 5 8 9 9 11 13 16 18 21 24 28 30 32 35 37 39 40 41 42 44 46 47 48 50 51 53 54 55 57 58 60 61 61 61 63
8 6 5 4 3 4 3 3 4 6 8 10 12 15 18 21 22 24 26 28 31 35 38 41 44 46 48 49 52 53 55 56 58 59 60 61 62 63 64 64 65 67 68 69
12 12 11 9 8 7 8 9 10 11 13 14 16 17 19 21 24 28 31 32 34 38 42 44 47 49 52 54 57 59 61 62 64 65 66 68 68 69 69 69 69 69 70 71
14 12 12 10 9 9 9 11 12 12 13 15 18 22 24 27 30 33 35 39 42 45 48 51 54 57 59 61 63 65 68 69 69 69 69 70 70 69 69 69 69 69 69 69
15 13 12 15 15 12 12 12 14 17 19 22 26 29 32 35 38 41 43 47 50 53 55 58 60 62 64 67 68 69 69 69 69 68 68 68 68 68 68 67 68 68 68 68
12 12 14 14 13 13 14 17 21 25 29 32 35 39 41 43 45 47 51 55 58 59 61 63 64 66 67 67 67 67 67 68 69 70 70 70 69 68 67 66 66 66 65 64
11 11 12 12 14 18 21 25 28 31 34 38 41 43 47 51 54 57 59 61 63 64 64 65 66 67 69 70 71 71 69 67 64 61 59 58 57 57 56 56 56 55 55 54
10 11 12 16 20 24 28 31 34 37 41 45 47 49 52 54 58 62 63 65 66 66 68 69 70 70 69 67 64 60 56 53 52 51 51 50 50 49 49 48 47 46 46 46
11 14 18 23 26 30 33 37 39 43 48 51 54 56 60 63 65 66 67 68 69 71 72 70 67 63 59 55 54 53 52 51 50 49 48 47 46 45 45 45 44 44 43 43

GFSNGP_500_spd_096.txt.gz
Wind_Speed
24 20 23 30 42 45 48 36 29 19 31 23 19 22 22 7 3 3 11 14 14 20 20 24 29 33 35 31 29 25 25 27 28 31 33 36 38 31 31 30 27 26 23 22
20 21 28 36 41 36 38 37 18 22 30 28 20 24 23 15 14 12 11 13 14 13 18 17 24 31 34 31 29 27 27 28 29 30 35 38 38 35 36 29 31 28 25 24
14 24 23 31 25 27 33 33 15 17 30 27 29 24 18 19 11 10 11 16 14 14 15 19 20 25 31 29 28 31 29 31 33 34 37 38 32 35 39 36 28 30 28 25
8 6 9 21 18 18 24 38 23 27 23 21 20 15 14 14 13 11 11 14 16 15 15 17 18 19 23 26 29 30 29 30 33 33 37 35 29 40 42 43 38 28 36 28
16 22 27 25 18 17 22 20 10 14 9 9 11 11 12 12 12 11 10 11 13 14 15 18 18 21 20 23 28 32 35 30 37 38 38 39 36 34 30 36 39 40 38 37
16 13 3 16 26 22 22 10 7 8 4 5 6 8 8 7 9 12 12 12 14 16 15 16 16 21 25 28 33 35 43 35 42 34 34 27 32 41 42 37 38 40 41 41
3 4 3 27 21 18 11 9 7 8 7 4 5 7 7 9 10 11 13 14 17 19 18 16 17 21 22 31 28 29 30 38 42 43 41 39 33 32 40 46 43 43 43 43
6 12 6 24 22 14 11 8 10 12 12 9 9 10 10 12 14 14 15 16 17 16 15 18 18 20 24 27 31 35 42 40 48 44 36 40 41 37 43 41 42 49 47 50
3 8 13 11 7 4 10 9 9 9 8 8 8 9 11 13 15 15 16 19 18 16 14 15 18 18 18 21 30 32 32 36 38 36 48 45 42 48 45 42 47 50 57 55
5 5 4 6 9 9 12 14 12 9 6 6 7 7 8 8 10 14 16 17 18 17 17 15 15 18 21 18 18 22 29 30 32 44 44 38 41 43 48 50 55 57 46 57
8 7 7 8 12 13 12 12 11 8 5 5 6 9 10 10 9 11 13 15 16 16 16 12 13 13 15 13 14 15 19 18 20 24 30 33 38 37 34 36 41 46 51 55
9 5 12 11 12 11 12 11 8 7 6 6 10 10 14 14 12 12 14 14 14 13 11 11 10 11 7 3 7 8 7 8 10 13 17 19 22 25 27 29 35 43 44 46
14 13 9 15 14 15 14 14 14 14 13 12 11 12 14 15 15 14 15 12 8 9 9 9 9 10 8 9 11 13 14 13 13 13 13 15 17 20 21 24 28 27 28 32
11 16 18 17 18 21 20 20 20 18 15 17 15 12 11 12 18 19 15 15 15 14 15 15 15 14 15 17 17 18 19 19 20 22 22 23 25 26 27 27 28 29 29 30
9 15 18 20 22 23 25 28 25 23 21 19 17 16 16 16 18 20 22 21 21 21 21 20 21 22 22 22 25 25 26 27 28 29 29 31 31 32 33 34 35 36 37 39
4 4 6 9 11 17 23 27 29 28 23 20 17 14 14 12 13 11 12 16 20 19 20 20 22 23 24 26 27 28 28 30 31 33 35 36 38 38 39 40 41 42 44 45
5 5 4 5 4 1 4 10 15 18 23 21 16 15 12 11 10 10 11 12 14 15 16 19 21 23 25 27 28 30 32 34 35 37 39 41 42 44 45 46 47 48 49 51
0 2 2 1 4 6 8 9 10 12 13 15 15 10 9 10 10 12 13 15 16 18 20 21 22 24 27 30 32 34 37 39 41 43 45 46 48 50 52 53 54 55 56 57
9 7 6 5 3 2 3 4 5 4 3 4 7 9 11 13 14 15 17 18 19 20 23 25 27 29 31 34 36 39 41 43 45 47 49 50 51 52 54 56 58 60 61 62
9 6 4 3 2 1 1 2 3 4 6 8 11 13 15 16 15 17 20 23 25 27 30 33 35 38 41 44 46 48 50 52 54 56 57 58 59 61 63 65 66 67 68 70
7 7 7 8 7 5 5 6 7 8 10 12 13 13 15 18 21 23 26 30 33 36 39 42 44 47 50 53 55 57 59 60 61 62 64 66 68 70 71 71 71 71 71 72
10 9 10 8 7 9 10 10 11 11 10 12 16 19 22 25 29 33 37 40 42 45 47 49 52 55 57 60 62 64 65 67 68 69 70 71 71 71 70 69 69 68 68 68
10 10 11 10 10 9 8 8 9 13 16 20 24 28 32 35 39 42 45 46 48 51 53 57 60 63 65 67 69 69 70 70 71 71 72 72 73 72 72 71 70 69 69 68
11 12 11 11 10 9 10 13 17 21 25 28 32 36 39 42 45 47 48 51 55 59 62 65 67 69 70 70 70 71 72 72 72 71 70 69 67 65 62 60 59 57 57 56
10 11 10 10 10 13 16 20 24 28 31 34 37 40 44 48 50 53 56 60 64 67 68 70 71 71 71 72 73 72 70 67 64 61 59 57 55 54 53 52 52 52 51 51
10 11 11 12 15 19 23 27 31 35 38 41 44 48 51 53 55 58 62 66 69 71 72 72 73 74 73 71 68 64 61 58 55 54 53 52 52 51 51 50 49 49 48 48
10 12 14 17 21 25 30 33 36 39 42 46 50 53 56 58 62 66 69 72 73 73 74 75 73 69 65 61 58 55 54 54 53 52 52 51 50 50 49 49 48 48 47 46

GFSNGP_500_spd_102.txt.gz
Wind_Speed
40 43 44 46 44 37 43 43 43 33 35 31 39 22 16 17 18 13 7 4 5 6 7 11 13 16 17 16 16 16 13 19 16 14 14 18 18 37 43 48 44 35 41 37
41 41 43 43 37 39 40 39 42 38 28 30 38 30 18 15 12 11 13 2 2 5 8 9 10 13 12 19 17 17 15 15 17 16 15 15 19 21 45 34 37 36 40 39
39 36 39 33 26 30 30 33 36 31 14 23 32 36 17 12 18 11 5 1 5 6 6 7 9 10 13 12 16 17 18 19 22 19 17 19 20 27 37 31 35 36 38 36
33 30 26 15 12 11 4 5 9 7 6 17 23 14 11 20 10 8 6 6 6 4 6 8 10 8 10 14 12 19 24 23 23 20 23 19 21 25 34 27 30 36 37 36
20 19 6 8 5 7 8 4 7 9 5 14 22 15 12 24 15 9 8 6 6 6 6 8 12 11 13 10 15 15 18 20 22 27 26 30 27 28 35 31 32 36 36 39
2 10 3 4 7 17 10 6 11 9 9 15 17 17 15 11 10 11 9 8 9 9 9 9 12 13 13 11 11 14 19 21 27 25 21 27 37 39 31 33 34 35 39 40
4 7 4 5 17 16 11 15 17 14 17 19 16 14 11 10 8 7 7 7 7 7 8 10 12 15 15 13 10 14 19 25 29 24 24 24 20 27 25 31 31 32 37 32
8 2 3 8 17 12 15 16 17 15 14 14 12 8 7 6 5 4 5 6 6 7 9 10 11 13 16 15 16 13 15 24 26 25 26 31 27 28 31 27 29 32 36 38
5 5 10 12 15 17 19 15 12 9 7 7 5 3 2 1 2 4 7 8 8 8 9 11 13 13 14 18 17 17 19 19 23 27 26 30 29 34 33 39 31 36 41 38
4 6 9 13 14 16 17 14 11 9 8 9 8 5 2 3 4 7 8 8 8 10 11 12 12 13 15 16 18 18 19 19 20 20 22 31 35 35 38 41 43 40 44 45
5 6 11 12 10 10 11 11 11 11 10 8 7 6 2 2 2 5 7 8 8 8 8 9 10 13 14 15 17 18 20 20 20 21 21 23 28 33 33 39 40 42 41 43
3 5 7 8 8 9 9 9 10 10 10 9 7 3 2 4 4 5 6 8 10 10 11 12 11 10 13 15 16 17 18 16 15 16 17 19 21 24 27 29 30 33 35 37
5 3 2 1 3 5 5 8 7 7 7 5 0 3 4 1 2 5 8 10 12 13 14 13 14 12 9 10 15 15 15 15 18 18 18 19 20 20 21 22 23 24 24 25
5 6 7 4 6 7 8 7 9 8 7 6 9 9 11 10 10 13 15 16 18 16 15 17 19 21 20 19 19 18 19 22 24 25 26 26 26 27 28 29 30 31 32 33
3 6 9 11 11 10 11 14 14 14 15 15 17 18 19 17 17 17 16 20 24 21 17 19 19 20 21 21 20 21 22 24 25 26 27 27 28 29 30 31 32 33 34 36
9 10 11 13 16 18 19 19 20 21 21 24 23 24 23 20 19 19 21 24 25 20 16 15 16 17 17 18 20 21 23 24 26 27 28 29 31 32 34 36 37 39 40 41
10 9 9 10 12 14 16 17 17 17 19 21 22 23 23 24 23 22 24 23 19 19 17 19 20 22 22 24 25 27 28 30 32 33 34 36 37 39 40 42 43 44 45 47
8 9 9 9 9 10 9 7 6 7 9 10 13 16 17 18 18 17 18 19 20 20 21 23 24 25 26 28 30 32 34 36 38 41 44 47 49 51 52 53 54 55 56 57
6 6 5 6 6 7 5 5 5 6 7 8 7 8 9 11 12 15 17 20 22 24 25 26 28 31 33 36 38 41 44 47 50 52 54 56 58 59 61 62 62 63 65 67
5 6 6 5 4 3 3 3 4 6 7 8 8 10 11 12 14 16 19 22 24 26 29 32 36 39 42 45 48 51 53 56 57 59 60 62 64 66 67 68 70 72 74 75
3 3 2 1 1 2 4 6 8 9 10 10 10 11 11 13 15 19 22 25 29 33 37 41 45 48 50 53 55 57 59 61 62 64 67 69 71 73 75 77 79 81 82 83
4 4 4 4 5 6 9 10 11 10 10 10 10 12 15 18 22 26 29 33 37 40 43 47 51 54 57 59 61 62 64 65 68 70 73 76 78 80 82 83 83 82 81 80
12 13 13 14 12 10 12 12 11 9 10 13 16 19 22 25 29 34 37 39 42 46 50 53 56 58 60 61 63 66 69 73 76 79 81 81 81 80 79 76 74 72 70 68
21 20 21 20 17 16 14 12 13 14 17 20 22 26 29 34 37 39 43 45 48 52 56 60 63 65 67 70 73 76 80 82 82 81 80 77 73 70 66 63 61 60 58 57
18 19 19 18 16 16 16 17 18 19 22 25 29 33 36 39 41 44 47 50 55 60 64 67 68 70 73 76 80 82 82 81 79 74 69 65 63 60 58 57 55 54 54 53
12 12 14 15 16 17 18 19 21 24 27 31 35 37 40 43 47 50 55 59 62 66 68 69 72 75 79 80 80 80 76 70 65 61 58 56 55 55 54 53 52 51 50 50
12 13 14 15 16 18 20 23 25 28 32 36 38 41 46 51 55 59 61 64 67 68 71 74 77 79 79 79 74 68 63 58 57 56 56 55 54 54 55 55 56 55 54 53

GFSNGP_500_spd_105.txt.gz
Wind_Speed
34 36 37 39 42 43 45 45 51 46 43 30 33 31 28 26 23 24 14 12 12 6 6 3 4 8 11 20 12 13 11 10 15 18 25 30 34 40 42 44 42 49 47 43
36 37 39 41 42 42 42 41 45 43 35 31 28 28 24 27 21 18 13 13 7 3 3 3 5 3 6 11 15 12 12 7 13 20 19 15 12 19 24 38 37 45 48 47
40 39 41 42 37 37 36 32 34 36 32 28 24 19 27 28 15 14 10 11 4 4 4 5 3 5 6 7 7 16 13 14 12 12 12 13 13 11 11 25 42 43 47 46
42 39 38 32 28 26 20 19 22 24 20 19 15 13 25 15 18 11 10 4 5 4 4 4 4 4 3 5 7 12 18 17 16 16 16 14 12 11 16 22 24 35 37 42
32 26 24 17 11 14 12 4 7 15 21 20 15 12 18 10 9 10 8 5 4 3 3 4 4 3 2 4 8 10 15 18 18 20 17 18 14 26 28 23 33 25 27 33
9 7 8 15 13 12 13 13 9 11 13 16 14 9 13 11 16 12 7 5 4 3 4 4 4 5 4 2 3 8 12 16 22 23 16 21 21 19 27 28 33 23 28 33
8 4 9 13 12 12 10 5 6 12 12 13 15 12 11 12 11 9 7 4 3 3 2 3 4 6 6 4 3 4 9 12 20 22 21 20 19 17 30 25 33 31 34 29
6 2 6 5 7 2 3 6 14 17 19 21 20 17 12 10 10 9 6 5 3 3 4 4 5 5 8 8 6 5 8 8 16 20 22 21 26 20 20 28 31 25 25 29
5 7 7 6 5 4 11 17 19 18 18 17 15 13 11 8 8 8 6 4 2 4 6 6 7 8 8 9 12 11 9 9 12 13 14 20 26 26 26 30 28 28 29 37
7 8 10 10 13 12 11 13 14 11 13 13 12 11 10 8 6 4 2 2 4 5 7 8 10 11 11 11 10 13 14 14 15 14 15 15 18 24 28 33 35 37 37 34
10 7 11 13 12 12 13 13 12 12 12 11 11 11 10 8 6 5 4 5 6 5 4 7 8 10 12 13 14 13 13 15 17 17 16 18 19 20 23 27 30 30 32 37
7 9 13 14 13 13 11 10 11 12 12 11 12 10 8 7 6 5 6 6 8 10 13 13 11 10 11 11 13 15 15 16 16 16 17 18 19 20 21 22 23 25 28 32
4 5 6 7 11 11 10 11 10 10 12 11 8 7 7 6 6 4 3 6 9 12 14 15 17 17 14 14 14 15 16 19 18 18 18 17 18 20 21 23 24 25 26 26
7 4 3 2 3 2 4 5 6 7 7 6 3 2 4 4 4 7 9 9 10 14 17 20 19 19 21 22 20 20 20 23 22 23 25 25 26 26 26 28 29 30 30 31
5 6 7 7 7 5 5 7 9 9 9 10 10 10 12 14 15 14 14 14 15 17 21 25 20 19 20 22 24 24 23 22 22 24 26 27 28 28 29 29 30 31 31 33
10 7 7 8 9 10 12 13 13 13 15 16 17 20 21 21 20 19 18 19 19 19 23 24 21 20 20 20 22 22 23 25 26 27 28 29 31 32 34 36 38 39 40 41
13 12 11 11 11 11 14 18 20 21 21 21 22 23 24 24 24 24 24 24 23 23 22 21 23 23 23 24 25 27 28 30 32 34 36 37 39 40 41 44 46 48 50 51
13 13 11 11 10 8 8 9 11 12 12 13 14 16 17 18 19 20 19 19 19 20 20 23 25 26 27 29 31 32 35 37 39 42 44 47 50 53 55 56 58 59 60 61
9 10 9 8 7 6 7 8 9 8 9 8 9 11 11 11 13 14 15 16 17 20 23 25 27 30 32 35 37 40 43 46 49 52 54 56 59 61 63 65 67 68 68 69
6 6 5 4 4 5 5 4 4 4 4 4 6 7 9 9 11 13 14 16 19 22 26 29 32 36 39 42 45 48 51 53 56 59 61 62 64 66 68 70 72 74 75 77
4 3 2 2 2 3 3 4 5 7 7 8 10 11 12 12 13 16 19 22 26 29 33 37 40 43 45 48 51 54 56 59 62 65 67 68 70 71 73 74 76 78 80 82
3 4 3 4 3 3 5 7 10 11 11 11 11 11 13 16 19 22 26 30 33 36 39 42 45 48 50 53 57 61 64 67 69 70 72 74 76 78 81 83 86 88 88 88
11 11 12 12 12 12 12 13 12 11 11 12 13 16 19 22 26 29 32 35 38 41 44 47 51 54 58 61 65 68 69 71 72 75 78 81 84 86 88 87 85 82 78 74
16 18 18 18 18 18 18 17 15 14 15 17 19 22 25 28 32 35 38 41 44 48 52 56 60 63 66 69 71 73 75 77 81 83 85 85 84 79 74 69 65 63 61 59
18 19 20 20 21 20 18 17 17 18 19 21 24 27 31 34 37 40 44 48 53 56 61 64 67 69 71 73 75 78 81 83 84 82 77 70 65 62 60 58 57 56 56 55
14 14 14 15 16 17 17 17 18 20 23 27 29 32 35 39 42 45 51 55 58 63 66 69 70 72 74 77 80 82 82 79 72 66 62 60 58 58 57 57 56 56 56 56
14 14 14 14 14 15 17 19 23 26 29 31 33 36 39 43 47 52 56 60 64 67 69 70 72 75 79 81 82 78 71 64 61 59 58 58 59 59 59 59 59 58 58 58

GFSNGP_500_spd_108.txt.gz
Wind_Speed
25 27 27 30 32 33 37 38 44 41 46 44 46 46 44 45 44 38 32 26 27 26 23 16 11 5 10 11 16 13 12 8 10 11 22 24 30 26 33 36 41 49 51 48
27 29 32 34 34 36 39 42 47 47 47 44 43 41 39 35 30 27 27 20 24 18 11 8 3 5 7 9 13 15 13 14 19 17 18 25 24 32 28 31 37 39 40 40
33 31 35 38 36 38 42 44 44 42 37 40 37 33 27 26 24 26 20 9 16 9 3 3 5 5 7 9 12 15 14 18 12 9 14 20 21 22 27 28 29 34 34 38
38 37 41 40 40 39 38 35 29 25 29 33 30 24 23 16 17 25 7 8 9 3 3 4 6 5 4 7 8 9 17 18 15 8 15 15 15 15 14 14 21 35 41 35
40 39 36 34 28 27 21 17 11 11 16 20 12 15 16 13 23 11 10 9 8 3 4 5 4 5 3 4 6 9 11 18 18 15 14 12 13 17 16 14 15 18 33 37
11 12 15 14 12 13 13 12 18 13 12 15 5 12 13 14 9 8 14 8 6 4 5 4 4 4 3 4 5 6 12 12 16 20 17 18 18 17 22 18 18 21 20 30
4 5 7 11 11 11 10 13 10 14 10 9 9 9 7 11 16 17 10 8 7 5 4 3 4 5 4 2 2 2 3 12 13 16 17 19 19 21 24 23 17 34 30 27
6 7 10 10 5 3 5 4 7 9 11 12 12 15 14 15 14 11 9 7 7 5 3 3 3 4 5 4 3 2 3 5 10 13 19 19 21 25 17 17 27 29 28 40
1 3 2 7 7 1 3 7 11 11 15 17 17 15 13 12 9 8 6 5 4 3 2 2 3 5 6 6 7 6 3 4 7 10 11 11 15 19 22 20 18 23 29 33
8 6 8 8 6 6 12 13 14 13 17 15 15 13 11 10 9 8 6 5 3 3 3 4 7 8 10 11 11 13 12 10 7 8 11 13 15 16 19 24 26 23 29 30
9 7 8 10 9 11 15 13 14 14 13 12 14 14 13 12 12 11 10 7 5 4 1 2 5 8 11 13 14 16 16 16 17 16 13 13 15 17 20 20 21 24 29 36
9 6 12 12 14 15 17 15 14 15 14 15 14 14 13 12 11 11 10 10 9 8 6 6 7 7 8 10 13 16 18 20 21 21 21 21 18 18 18 20 22 23 24 26
7 6 7 16 15 14 13 12 14 14 15 14 14 12 11 10 9 6 4 3 3 5 8 11 14 16 15 14 13 13 16 19 21 23 23 23 25 25 24 23 22 24 25 26
6 4 5 7 11 14 11 11 11 12 12 11 10 7 4 0 2 5 6 8 10 13 15 17 19 22 25 23 22 21 20 20 22 25 26 27 25 26 27 28 29 28 29 30
7 7 5 5 5 6 8 9 6 6 6 5 4 4 5 6 10 12 15 15 15 17 19 21 24 27 27 27 25 24 23 21 20 21 22 24 26 28 29 30 31 31 33 34
8 7 6 7 7 7 7 8 8 8 8 9 11 12 14 15 17 19 20 21 22 23 25 25 24 26 26 25 25 26 26 26 26 27 29 29 30 32 35 36 38 40 42 42
15 13 12 10 11 11 12 13 14 15 16 17 18 19 21 23 25 26 27 26 25 26 27 27 27 26 24 25 26 28 28 30 32 34 36 38 40 41 43 45 47 50 52 54
15 16 16 14 12 12 12 12 13 14 15 15 15 16 18 20 22 22 23 23 23 23 24 24 24 24 25 26 29 31 33 35 38 40 42 45 48 52 54 56 58 59 60 62
12 12 13 13 11 11 10 9 8 9 10 12 13 14 13 13 12 12 13 15 17 19 20 22 23 25 28 31 34 37 40 43 46 48 51 54 57 59 60 62 64 67 69 71
7 9 9 9 9 8 6 5 5 6 7 8 9 8 8 10 11 13 14 15 16 19 22 26 29 32 34 37 40 43 46 49 51 52 55 59 62 64 67 69 71 73 75 78
9 9 9 7 6 5 5 4 5 6 8 9 10 11 12 12 13 13 15 19 22 25 28 32 34 37 40 43 46 49 51 54 58 61 63 66 68 70 72 75 77 78 80 81
4 3 2 1 2 3 5 5 6 8 10 11 12 13 13 13 15 18 21 25 28 31 34 37 40 44 48 51 54 58 61 64 66 69 71 73 75 77 78 80 82 85 87 89
3 4 4 5 6 7 8 9 11 12 12 12 12 14 15 18 21 24 28 31 34 37 40 43 47 51 54 58 62 65 68 71 73 75 77 79 81 83 86 87 87 84 79 74
10 11 12 14 15 14 15 15 16 15 14 15 16 19 21 25 27 30 33 36 39 42 45 50 54 59 63 66 68 71 73 75 78 79 82 85 86 84 79 73 67 64 61 60
13 14 14 15 15 16 17 17 17 16 16 18 21 24 27 30 33 36 38 42 45 49 52 57 61 65 68 70 72 74 77 79 82 84 84 80 73 66 63 61 61 60 60 60
13 14 14 15 16 16 17 16 17 17 19 22 26 29 32 35 38 40 44 47 51 55 59 62 67 69 71 73 75 77 81 83 81 76 69 64 62 62 62 61 60 59 59 58
15 16 17 18 18 17 17 17 18 20 23 26 29 32 36 39 42 45 47 51 55 59 64 67 69 71 73 75 78 81 80 75 68 63 62 62 61 60 58 58 58 58 59 59

GFSNGP_500_spd_111.txt.gz
Wind_Speed
33 33 27 21 21 25 29 28 33 31 34 36 37 44 50 48 51 51 49 49 48 45 35 36 32 32 32 26 24 23 25 19 16 22 21 14 20 25 27 32 36 44 46 50
21 24 23 25 29 29 31 32 36 37 38 38 44 47 50 51 50 45 43 37 35 26 24 26 27 21 10 16 17 18 20 19 19 15 16 21 17 20 23 30 38 42 45 52
21 26 29 34 34 33 35 38 39 40 39 45 47 50 45 44 38 33 28 27 19 12 9 11 9 7 6 9 13 14 17 19 18 20 14 11 14 16 19 29 23 25 30 37
30 31 35 39 41 37 40 41 42 39 36 36 36 37 37 33 27 24 20 13 11 6 6 6 8 8 7 8 10 13 13 18 12 14 8 6 20 12 17 23 28 28 27 29
35 38 41 43 40 40 38 35 28 21 17 21 26 29 16 16 14 14 17 13 6 4 3 8 7 7 7 5 7 9 8 10 18 20 12 8 17 11 20 21 19 25 33 33
26 22 20 20 17 15 12 12 10 13 18 18 15 6 10 12 11 13 14 16 4 3 8 7 6 6 7 5 5 7 11 14 12 12 16 11 9 11 16 10 8 8 13 15
6 5 6 9 9 9 12 10 11 12 14 16 13 7 9 9 9 19 17 10 5 8 8 8 6 5 3 2 3 4 4 6 10 10 11 11 15 13 17 16 18 12 15 22
6 10 14 16 13 9 6 7 7 8 13 12 11 12 13 19 23 18 12 9 8 9 9 8 8 7 5 4 4 4 5 7 10 10 5 9 14 13 14 16 16 23 19 24
6 6 7 7 5 5 3 3 5 7 7 10 16 20 19 14 13 13 12 11 9 9 8 7 7 8 8 7 7 7 7 7 7 7 9 10 10 10 12 14 16 15 16 26
10 7 2 7 4 5 1 7 8 13 13 12 14 15 16 15 15 14 12 11 10 9 8 7 7 7 8 10 11 12 12 13 13 12 11 11 10 11 12 13 17 18 20 21
10 8 7 5 4 7 3 11 13 9 12 11 13 14 14 14 13 12 11 10 9 9 7 6 5 6 8 10 12 14 16 18 19 20 19 19 19 17 17 17 16 17 20 22
6 10 8 8 10 10 6 9 10 13 12 13 13 14 13 11 11 10 9 10 9 7 5 5 7 8 10 12 13 14 16 17 17 19 24 26 25 23 24 23 21 21 22 21
2 1 10 11 12 16 11 9 11 11 10 10 11 12 11 11 13 9 6 4 2 1 4 8 10 13 15 18 19 18 17 19 21 21 22 22 25 28 29 29 28 26 24 24
4 3 5 12 13 14 14 11 12 12 13 14 14 13 12 8 3 1 3 4 6 8 10 12 15 18 21 24 25 25 25 24 21 21 21 24 26 26 28 29 29 29 29 29
8 7 5 6 10 12 12 11 12 12 11 11 9 7 5 4 4 6 8 11 14 16 18 20 22 24 25 27 29 30 29 27 26 24 25 24 23 24 27 29 31 33 34 35
7 7 8 7 9 9 8 10 11 9 8 8 8 9 9 11 11 12 14 16 18 20 22 24 26 28 29 30 32 32 32 30 30 29 30 30 31 33 35 37 38 39 41 42
12 10 10 8 7 8 10 12 13 14 14 14 15 15 16 16 18 20 23 25 27 29 29 28 27 28 29 30 29 28 29 29 30 33 36 38 40 41 42 44 47 49 51 53
20 19 16 14 13 13 13 14 15 15 16 17 18 19 20 20 22 23 24 26 26 26 24 23 23 23 25 26 27 28 30 32 35 38 41 44 47 49 51 53 55 56 58 59
14 16 19 21 19 17 17 16 15 16 16 16 14 14 14 16 16 15 14 13 14 15 16 17 19 21 24 27 30 32 36 39 43 46 49 52 53 56 58 60 63 65 68 70
13 15 14 14 14 14 14 13 14 13 12 13 13 14 14 13 13 13 14 15 15 15 17 20 23 27 30 32 36 39 42 44 47 51 54 57 60 62 64 67 70 72 74 76
8 10 11 11 11 12 13 12 10 9 10 11 12 13 14 15 15 15 15 15 18 21 24 27 30 33 36 39 42 45 49 52 55 60 63 65 67 69 72 74 77 79 82 84
9 9 8 9 9 8 8 8 8 8 9 12 14 16 17 17 17 17 19 22 25 27 30 33 37 40 43 46 49 53 57 60 64 68 70 72 74 76 78 81 83 84 85 86
5 4 4 3 2 3 7 8 10 11 12 14 14 15 17 18 20 23 26 28 32 35 38 41 44 47 50 53 56 60 63 68 72 75 77 78 80 82 83 85 86 87 86 83
4 3 3 5 6 8 9 10 12 14 16 17 17 17 20 22 25 28 31 34 37 41 45 48 50 53 56 59 63 67 71 75 77 78 80 81 83 85 86 84 79 73 68 66
7 7 8 10 12 13 13 15 16 17 17 18 20 21 23 25 28 31 34 38 42 45 48 51 53 56 59 64 69 73 76 77 79 80 83 85 84 80 73 67 65 64 63 62
10 12 14 15 15 16 16 17 18 19 20 20 21 23 25 28 31 34 38 41 45 48 50 52 56 61 66 70 73 75 77 79 81 83 81 75 69 65 64 63 62 61 61 61
14 16 17 18 19 20 21 22 22 23 23 23 24 27 29 32 36 39 43 46 48 49 53 57 62 67 70 73 75 77 79 82 79 73 67 64 64 63 62 61 61 60 60 59

GFSNGP_500_spd_114.txt.gz
Wind_Speed
31 33 40 41 42 38 36 28 28 21 28 29 34 43 46 42 41 44 45 44 45 48 51 53 52 50 40 33 28 32 29 26 29 22 15 13 19 30 20 23 20 16 40 41
26 32 37 42 42 33 27 24 29 32 34 33 38 43 42 44 45 48 48 49 50 48 42 35 29 20 23 25 15 16 17 23 23 26 22 26 20 22 15 19 19 17 27 36
31 35 35 35 28 30 29 32 35 38 40 42 38 39 45 46 48 50 50 48 39 31 21 13 11 14 14 11 15 12 11 16 16 18 19 20 15 17 16 18 13 16 20 33
28 25 31 31 36 35 36 37 40 41 46 42 41 43 44 41 41 41 37 28 20 14 13 11 11 8 10 13 9 8 9 6 8 15 19 12 11 11 12 11 21 22 15 17
30 32 34 38 41 37 38 36 39 37 39 36 30 27 27 32 31 20 16 14 11 6 7 5 5 4 6 7 2 5 6 7 11 9 14 18 10 11 8 13 14 23 27 20
32 32 33 32 27 23 22 22 15 16 17 16 19 20 13 11 9 10 11 8 9 5 4 2 3 5 3 3 4 7 4 7 9 12 9 12 11 9 5 8 7 11 15 21
20 18 15 8 10 10 14 15 12 15 15 17 12 12 14 9 11 10 12 10 5 3 1 1 2 3 1 1 6 7 6 6 7 7 6 7 6 6 9 9 11 11 11 11
5 10 14 14 17 16 14 12 14 15 13 12 14 17 12 11 15 13 10 8 7 6 3 4 6 6 7 11 11 11 11 10 10 12 14 13 9 5 4 5 6 6 11 16
9 12 14 14 11 9 11 10 9 8 10 10 11 14 15 18 14 9 10 10 9 10 9 9 10 9 11 12 11 13 14 15 16 16 16 15 14 14 13 13 8 8 9 8
15 14 11 9 7 5 7 5 3 7 4 13 16 20 17 13 12 12 12 13 12 11 12 11 11 12 12 12 12 13 14 15 15 16 18 19 19 18 15 13 12 13 17 17
14 12 9 8 5 5 2 5 5 8 8 10 12 13 14 15 15 14 14 13 12 11 10 10 11 13 12 12 12 11 12 14 16 16 17 19 22 23 23 22 20 18 17 17
6 9 10 9 7 2 3 4 7 11 10 12 14 16 16 15 15 14 12 11 11 10 10 9 10 10 12 14 15 16 17 19 21 23 25 27 29 27 25 24 24 24 24 23
4 3 9 11 8 7 5 6 10 11 13 14 15 15 14 11 12 11 8 8 5 3 4 6 7 10 13 15 17 19 21 23 25 25 26 27 27 27 26 27 27 28 29 27
4 4 4 11 13 12 9 8 10 10 8 8 7 7 10 13 9 6 3 1 3 5 8 10 12 15 18 20 23 25 27 29 29 29 28 26 24 22 22 24 25 27 27 29
10 7 4 4 10 8 11 13 9 9 12 12 14 13 11 7 4 3 4 6 8 10 11 14 18 21 25 28 29 29 30 31 31 30 27 27 27 26 26 27 29 33 35 36
7 9 8 6 6 8 10 8 10 11 12 12 11 9 7 8 9 10 11 13 15 16 18 21 25 28 29 30 32 31 31 31 30 29 28 28 30 31 34 37 39 40 42 42
12 8 8 8 8 10 10 11 13 12 10 10 11 11 12 13 15 16 17 19 21 23 25 27 28 28 26 25 25 26 26 26 28 29 31 33 36 40 43 45 47 48 49 53
17 16 14 11 10 9 9 10 11 13 14 15 16 17 18 18 19 19 20 20 20 19 17 16 17 19 19 20 20 23 25 27 30 33 37 39 42 44 47 49 52 56 59 61
12 15 17 18 17 15 14 15 15 17 18 17 17 17 17 17 17 17 17 17 16 15 16 17 18 19 20 23 26 30 31 34 37 40 43 45 48 51 54 57 61 65 68 70
17 16 16 18 20 22 22 22 21 20 19 18 17 17 17 17 17 17 17 16 17 19 20 19 21 25 28 30 33 36 39 42 45 48 51 54 57 61 63 66 69 73 77 79
16 15 15 17 17 18 17 18 17 17 16 15 16 17 17 18 18 18 20 21 21 21 23 26 28 31 34 37 41 44 47 50 53 57 60 62 66 69 71 75 79 82 84 85
11 11 12 12 13 14 15 14 13 14 14 14 14 16 18 19 21 22 23 24 25 26 29 32 35 38 41 45 49 52 55 57 60 63 65 69 73 76 79 82 84 86 88 89
10 8 8 8 8 9 9 9 10 12 13 14 15 17 19 20 22 24 25 26 29 31 34 37 40 43 47 51 54 57 59 61 64 67 72 76 80 82 84 86 87 88 89 89
11 9 7 7 7 6 7 8 11 12 14 17 19 22 22 22 23 26 27 30 32 34 37 41 45 48 52 55 57 59 62 66 70 74 78 81 83 85 86 88 88 83 76 71
9 8 8 9 7 7 9 11 13 15 18 19 20 21 22 23 24 26 28 31 34 37 41 46 50 54 56 58 60 63 68 73 76 79 81 83 85 87 84 77 72 69 68 67
11 11 12 11 11 13 15 17 19 19 20 21 23 24 24 25 27 29 32 35 39 44 48 51 54 56 57 61 66 70 74 76 79 81 84 85 80 75 70 68 68 66 64 64
16 16 15 16 17 18 20 21 22 23 25 27 28 28 29 30 32 35 38 41 45 49 52 53 54 57 63 68 71 74 76 79 82 83 79 73 69 68 67 66 66 67 67 67

GFSNGP_500_spd_117.txt.gz
Wind_Speed
46 34 33 37 38 36 34 35 39 34 33 24 35 46 47 44 38 34 36 38 39 40 41 42 44 46 49 51 51 40 28 25 24 24 23 28 25 21 26 35 29 22 19 25
32 23 28 36 32 34 36 38 40 31 28 31 36 41 39 33 36 40 43 44 45 45 45 46 47 48 45 30 20 17 17 14 15 14 20 19 30 35 31 27 29 25 16 23
28 31 30 33 30 33 33 33 34 36 37 36 41 41 39 40 41 45 45 48 49 48 46 41 33 20 14 14 16 16 12 14 13 6 5 11 15 17 21 22 20 11 12 11
24 25 30 30 31 29 29 34 39 43 43 45 45 44 43 46 44 45 46 45 44 41 29 18 14 13 11 14 13 9 8 11 15 10 8 11 18 13 12 14 17 20 14 5
27 26 25 29 31 33 35 40 42 39 43 43 43 42 40 36 28 29 33 30 22 13 10 9 10 8 8 5 2 6 6 6 5 2 5 9 9 11 6 7 17 13 18 17
24 28 34 30 33 31 29 23 18 20 22 20 20 21 20 19 18 15 11 8 8 7 7 8 7 6 4 7 8 7 8 11 9 7 4 3 5 2 4 4 2 1 15 21
31 33 30 20 16 15 19 19 18 21 22 19 17 17 16 15 11 8 9 7 7 7 7 8 7 10 14 13 13 15 17 17 17 16 14 14 10 8 6 4 4 3 3 4
22 18 10 10 14 17 18 18 18 18 19 19 17 11 11 12 9 10 9 8 8 10 10 9 12 11 12 14 13 12 15 17 17 15 16 17 18 20 16 12 8 6 7 4
15 9 10 13 13 14 14 16 17 15 15 15 15 14 12 7 9 10 10 10 10 9 7 11 13 12 12 13 12 13 14 16 16 16 17 16 17 17 16 17 18 17 12 10
8 11 13 13 11 12 13 14 10 8 4 5 5 9 8 10 10 12 11 11 12 10 13 13 12 11 12 12 13 13 15 15 16 17 19 19 20 20 20 19 17 15 16 18
14 15 14 12 10 11 12 7 6 4 1 7 7 11 9 10 12 14 14 15 14 13 12 12 12 12 13 13 13 14 15 16 18 19 21 22 23 24 23 22 20 19 18 18
10 8 8 9 9 8 7 2 4 4 5 9 11 11 13 15 16 15 16 14 12 12 11 9 7 7 9 10 11 13 16 19 22 23 24 26 28 28 28 26 24 23 22 22
5 4 7 10 8 6 4 2 4 7 9 12 14 15 16 16 15 13 14 12 9 7 4 3 1 4 7 9 12 16 20 25 27 28 28 29 31 32 33 29 26 25 24 24
6 4 5 7 11 9 5 6 9 11 12 14 16 15 16 16 14 11 9 6 4 3 3 4 6 7 11 14 18 21 24 28 30 31 31 30 28 28 26 26 24 24 25 26
10 9 6 5 6 10 11 10 10 10 11 12 12 13 13 12 11 9 8 7 7 7 9 10 13 16 19 21 25 28 32 34 33 29 28 25 23 23 23 23 27 29 30 32
6 8 8 7 5 6 8 13 15 12 14 12 13 14 13 11 10 9 10 11 12 13 14 16 19 22 24 26 27 29 28 26 24 22 21 23 24 27 30 32 33 35 38 40
11 8 7 7 8 8 8 11 9 10 12 14 12 12 12 12 13 14 15 16 17 18 19 20 22 22 20 18 16 16 17 19 21 24 27 29 31 34 37 39 41 43 45 47
12 14 12 9 9 10 9 10 12 14 13 12 13 15 16 18 18 19 19 19 19 19 19 18 17 16 17 18 19 21 24 27 30 32 34 37 39 41 43 46 49 51 53 56
11 11 13 16 14 13 13 12 12 12 13 13 15 17 18 18 19 20 20 20 20 20 18 18 19 20 22 23 25 28 30 33 35 38 41 44 47 50 52 54 57 59 62 65
15 14 13 13 16 17 18 17 16 15 17 18 18 18 18 19 19 20 20 21 21 21 21 24 25 25 26 29 31 34 37 40 43 46 49 53 55 57 60 62 64 67 70 73
15 15 16 15 16 17 19 21 21 20 19 18 18 19 19 19 20 21 22 23 25 26 27 28 29 30 32 34 38 40 43 47 50 53 57 60 62 64 67 69 72 75 79 82
11 13 14 13 14 17 18 18 18 19 19 19 18 18 19 20 22 24 26 27 28 29 30 32 32 33 37 40 42 45 49 53 57 60 63 65 67 69 73 76 80 84 87 88
13 13 12 11 12 13 15 16 17 16 15 15 17 18 19 21 23 25 26 27 28 30 31 32 34 38 40 43 47 51 55 59 63 65 67 70 73 77 81 84 86 87 89 91
12 9 7 7 8 8 10 10 12 13 14 15 17 19 21 24 26 26 25 26 27 28 31 34 36 40 44 49 53 57 60 63 65 67 71 76 80 83 84 86 88 89 85 79
5 11 11 9 9 10 11 12 12 13 14 16 18 20 22 23 25 26 27 27 28 30 34 38 42 46 51 54 58 60 62 65 69 73 77 80 82 84 87 85 80 76 73 72
9 10 11 11 11 13 14 14 14 16 18 21 23 25 26 27 28 29 30 32 33 35 38 43 47 51 54 57 59 62 65 70 74 77 79 82 84 82 78 74 72 70 68 69
13 14 16 17 17 17 17 18 20 21 23 25 27 28 29 31 32 33 34 36 38 41 44 48 50 53 55 57 61 66 71 74 76 79 82 80 76 72 70 69 67 67 66 63